Regional Weather Roundup
Issued by NWS

Home | Current Version | Previous Version | Text Only | Print | Product List | Glossary Off
Versions: 1 2 3 4 5 6 7 8 9 10 11 12 13 14 15 16 17 18 19 20 21 22 23 24 25 26 27 28 29 30 31 32 33 34 35 36 37 38 39 40 41 42 43 44 45 46 47 48 49 50

000
ASUS43 KIND 311909
RWRIN

WEATHER ROUNDUP FOR INDIANA
NATIONAL WEATHER SERVICE INDIANAPOLIS IN
300 PM EDT FRI JUL 31 2015

NOTE: "FAIR" INDICATES FEW OR NO CLOUDS BELOW 12,000 FEET WITH NO
SIGNIFICANT WEATHER AND/OR OBSTRUCTIONS TO VISIBILITY.

* - STATION DOES NOT REPORT WEATHER SUCH AS PRECIPITATION OR FOG.

+ - STATION NOT QUALITY CONTROLLED BY THE NATIONAL WEATHER SERVICE.
    USE DATA WITH CAUTION...ESPECIALLY DEWPOINT AND RELATIVE
    HUMIDITY OBSERVATIONS.

INZ001>003-010>013-019-020-312000-
NORTHWEST INDIANA

CITY           SKY/WX    TMP DP  RH WIND       PRES   REMARKS
GARY /AIRPORT/ MOSUNNY   88  52  29 NW17G29   29.96F
KNOX *+        PTSUNNY   82  61  47 NW14G21   29.95S
LA PORTE +     MOSUNNY   86  61  42 NW12      29.97F
MICHIGAN CITY+ SUNNY     82  57  42 NW9       29.97S
MONTICELLO +   MOSUNNY   86  67  52 W16       29.97F
RENSSELAER +   MOSUNNY   86  63  45 W18G24    29.98S
VALPARAISO     PTSUNNY   85  57  38 NW12G21   29.96F

$$

LMZ046-743>745-312000-
SOUTHERN LAKE MICHIGAN

STATION/POSITION TIME  TEMP    WIND        PRES    WAVE
                       AIR SEA DIR/SP/G            HT
                 (UTC) (F)     (DEG/KT/KT) (MB)    (FT)
BURNS HARBOR     1800   76      10/  3/  5 1015.2F
MICHIGAN CITY    1800   77     240/  7/  8   N/A
5NW MICH CITY    1900   77 76  290/  4/  4   N/A     1

$$

INZ004-005-014>016-021>024-312000-
NORTH CENTRAL INDIANA

CITY           SKY/WX    TMP DP  RH WIND       PRES   REMARKS
ELKHART        SUNNY     84  55  37 NW17G24   29.96F
GOSHEN         MOSUNNY   84  60  44 W20G28    29.95S
LOGANSPORT +   MOSUNNY   86  55  35 W16G25    29.98F
PERU/GRISSOM   SUNNY     87  65  48 W21G26    29.96F
ROCHESTER +    LGT RAIN  79  66  65 N6        29.97S
SOUTH BEND     SUNNY     85  53  33 NW18G26   29.97S
WARSAW +       MOSUNNY   73  68  83 SW9       29.97S

$$

INZ006>009-017-018-025>027-312000-
NORTHEAST INDIANA

CITY           SKY/WX    TMP DP  RH WIND       PRES   REMARKS
ANGOLA *+      MOSUNNY   86  64  48 NW13      29.93F
AUBURN +       MOSUNNY   88  59  37 W15G23    29.95F
FORT WAYNE     PTSUNNY   85  60  42 W17G23    29.95F
HUNTINGTON +   PTSUNNY   84  62  47 W13G20    29.95F

$$

INZ028-029-035-036-043>045-051>053-312000-
WEST CENTRAL INDIANA

CITY           SKY/WX    TMP DP  RH WIND       PRES   REMARKS
CRAWFORDSVL +  MOSUNNY   83  57  41 W9        30.03
GREENCASTLE +  SUNNY     84  57  39 CALM      30.04F
LAFAYETTE      MOSUNNY   86  66  51 W18G26    29.98F
TERRE HAUTE    SUNNY     89  63  41 W10       30.03F

$$

INZ030>032-037>040-046>048-054>057-064-065-312000-
CENTRAL INDIANA

CITY           SKY/WX    TMP DP  RH WIND       PRES   REMARKS
ANDERSON       SUNNY     84  46  26 W12       30.02F
COLUMBUS       MOSUNNY   86  45  23 NW9       30.03
FISHERS *+     SUNNY     84  63  48 W10       30.01F
FRANKFORT +    SUNNY     86  67  51 SW12      30.02F
GREENWOOD *+   SUNNY     84  52  32 W8G17     30.03F
INDIANAPOLIS   MOSUNNY   87  57  35 W13G21    30.01F
-EAGLE CREEK   SUNNY     86  59  39 W9G20     30.01F
KOKOMO *+      MOSUNNY   88  63  42 W18G26    29.98F
MARION +       PTSUNNY   84  59  42 W10       29.99F
MT COMFORT *+  SUNNY     86  41  20 NW10G20   30.02F
SHELBYVILLE    SUNNY     87  58  37 W14       30.01F
ZIONSVILLE +   SUNNY     85  59  41 W10G17    30.02F

$$

INZ033-034-041-042-049-050-058-059-312000-
EAST CENTRAL INDIANA

CITY           SKY/WX    TMP DP  RH WIND       PRES   REMARKS
MUNCIE         SUNNY     84  59  42 W12       29.99F

$$

INZ060-061-067>069-081>083-085>088-312000-
SOUTHWEST INDIANA

CITY           SKY/WX    TMP DP  RH WIND       PRES   REMARKS
EVANSVILLE     SUNNY     89  59  36 W6        30.06F
HUNTINGBURG *+ SUNNY     88  63  42 NW7       30.06F
WASHINGTON +   SUNNY     86  53  32 NW5       30.05S

$$

INZ062-063-066-070>080-084-089>092-312000-
SOUTH CENTRAL AND SOUTHEAST INDIANA

CITY           SKY/WX    TMP DP  RH WIND       PRES   REMARKS
BLOOMINGTON    SUNNY     86  58  38 VRB6G17   30.05F
MADISON *+     SUNNY     86  54  32 NW6       30.06F
NORTH VERNON + SUNNY     90  52  27 W9        30.04F
SEYMOUR +      SUNNY     90  61  37 W13       30.03F

$$



USA.gov is the U.S. government's official web portal to all federal, state and local government web resources and services.